Time,TemperatureF,DewpointF,PressureIn,WindDirection,WindDirectionDegrees,WindSpeedMPH,WindSpeedGustMPH,Humidity,HourlyPrecipIn,Conditions,Clouds,dailyrainin,SoftwareType,DateUTC
2013-02-15 00:02:00,30.0,26.0,29.93,WNW,294,0.0,0.0,85,0.00,,,0.00,,2013-02-15 05:02:00,
2013-02-15 00:12:00,30.0,26.0,29.93,WNW,294,0.0,0.0,85,0.00,,,0.00,,2013-02-15 05:12:00,
2013-02-15 00:32:00,31.0,27.0,29.93,WNW,294,0.0,0.0,86,0.00,,,0.00,,2013-02-15 05:32:00,
2013-02-15 00:42:00,31.0,27.0,29.93,WNW,294,0.0,0.0,86,0.00,,,0.00,,2013-02-15 05:42:00,
2013-02-15 00:52:00,31.0,27.0,29.93,WNW,293,0.0,1.0,85,0.00,,,0.00,,2013-02-15 05:52:00,
2013-02-15 01:02:00,32.0,27.0,29.93,WNW,289,0.0,1.0,81,0.00,,,0.00,,2013-02-15 06:02:00,
2013-02-15 01:11:00,32.0,27.0,29.93,WNW,289,0.0,1.0,81,0.00,,,0.00,,2013-02-15 06:11:00,
2013-02-15 01:22:00,33.0,28.0,29.92,West,269,0.0,1.0,80,0.00,,,0.00,,2013-02-15 06:22:00,
2013-02-15 01:32:00,34.0,28.0,29.91,WSW,250,1.0,4.0,78,0.00,,,0.00,,2013-02-15 06:32:00,
2013-02-15 01:42:00,34.0,28.0,29.91,WSW,250,1.0,4.0,78,0.00,,,0.00,,2013-02-15 06:42:00,
2013-02-15 01:52:00,37.0,28.0,29.91,WSW,240,2.0,6.0,70,0.00,,,0.00,,2013-02-15 06:52:00,
2013-02-15 02:01:00,37.0,28.0,29.91,WSW,240,2.0,6.0,70,0.00,,,0.00,,2013-02-15 07:01:00,
2013-02-15 02:11:00,37.0,28.0,29.91,WSW,240,2.0,6.0,70,0.00,,,0.00,,2013-02-15 07:11:00,
2013-02-15 02:21:00,38.0,28.0,29.91,SSW,211,4.0,7.0,67,0.00,,,0.00,,2013-02-15 07:21:00,
2013-02-15 02:32:00,38.0,28.0,29.91,SSW,192,3.0,8.0,68,0.00,,,0.00,,2013-02-15 07:32:00,
2013-02-15 02:42:00,38.0,28.0,29.91,SSW,192,3.0,8.0,68,0.00,,,0.00,,2013-02-15 07:42:00,
2013-02-15 02:52:00,38.0,28.0,29.91,WSW,254,5.0,9.0,68,0.00,,,0.00,,2013-02-15 07:52:00,
2013-02-15 03:01:00,38.0,29.0,29.91,SW,235,3.0,7.0,69,0.00,,,0.00,,2013-02-15 08:01:00,
2013-02-15 03:11:00,38.0,29.0,29.91,SW,235,3.0,7.0,69,0.00,,,0.00,,2013-02-15 08:11:00,
2013-02-15 03:21:00,38.0,29.0,29.90,SE,139,1.0,8.0,70,0.00,,,0.00,,2013-02-15 08:21:00,
2013-02-15 03:32:00,38.0,29.0,29.90,West,263,2.0,6.0,70,0.00,,,0.00,,2013-02-15 08:32:00,
2013-02-15 03:42:00,38.0,29.0,29.90,West,263,2.0,6.0,70,0.00,,,0.00,,2013-02-15 08:42:00,
2013-02-15 03:52:00,38.0,29.0,29.90,West,263,2.0,6.0,70,0.00,,,0.00,,2013-02-15 08:52:00,
2013-02-15 04:02:00,38.0,29.0,29.90,West,266,0.0,7.0,69,0.00,,,0.00,,2013-02-15 09:02:00,
2013-02-15 04:12:00,38.0,29.0,29.90,West,266,0.0,7.0,69,0.00,,,0.00,,2013-02-15 09:12:00,
2013-02-15 04:22:00,38.0,28.0,29.89,WSW,258,2.0,6.0,68,0.00,,,0.00,,2013-02-15 09:22:00,
2013-02-15 04:32:00,38.0,28.0,29.88,South,191,3.0,7.0,68,0.00,,,0.00,,2013-02-15 09:32:00,
2013-02-15 04:42:00,38.0,28.0,29.88,South,191,3.0,7.0,68,0.00,,,0.00,,2013-02-15 09:42:00,
2013-02-15 04:52:00,38.0,28.0,29.88,SW,218,5.0,10.0,68,0.00,,,0.00,,2013-02-15 09:52:00,
2013-02-15 05:01:00,37.0,28.0,29.89,SSW,205,2.0,7.0,69,0.00,,,0.00,,2013-02-15 10:01:00,
2013-02-15 05:11:00,37.0,28.0,29.89,SSW,205,2.0,7.0,69,0.00,,,0.00,,2013-02-15 10:11:00,
2013-02-15 05:21:00,37.0,28.0,29.89,SSW,205,2.0,7.0,69,0.00,,,0.00,,2013-02-15 10:21:00,
2013-02-15 05:32:00,38.0,28.0,29.90,West,267,1.0,8.0,68,0.00,,,0.00,,2013-02-15 10:32:00,
2013-02-15 05:42:00,38.0,28.0,29.90,West,267,1.0,8.0,68,0.00,,,0.00,,2013-02-15 10:42:00,
2013-02-15 05:52:00,38.0,28.0,29.89,SSE,155,2.0,7.0,67,0.00,,,0.00,,2013-02-15 10:52:00,
2013-02-15 06:01:00,38.0,28.0,29.90,SSW,213,2.0,9.0,67,0.00,,,0.00,,2013-02-15 11:01:00,
2013-02-15 06:11:00,38.0,28.0,29.90,SSW,213,2.0,9.0,67,0.00,,,0.00,,2013-02-15 11:11:00,
2013-02-15 06:23:00,38.0,28.0,29.90,West,265,3.0,7.0,67,0.00,,,0.00,,2013-02-15 11:23:00,
2013-02-15 06:32:00,38.0,28.0,29.90,South,182,5.0,10.0,67,0.00,,,0.00,,2013-02-15 11:32:00,
2013-02-15 06:42:00,38.0,28.0,29.90,South,182,5.0,10.0,67,0.00,,,0.00,,2013-02-15 11:42:00,
2013-02-15 06:52:00,38.0,28.0,29.90,South,182,5.0,10.0,67,0.00,,,0.00,,2013-02-15 11:52:00,
2013-02-15 07:02:00,37.0,27.0,29.90,West,281,2.0,7.0,67,0.00,,,0.00,,2013-02-15 12:02:00,
2013-02-15 07:11:00,37.0,27.0,29.90,West,281,2.0,7.0,67,0.00,,,0.00,,2013-02-15 12:11:00,
2013-02-15 07:22:00,37.0,27.0,29.90,WSW,249,1.0,5.0,68,0.00,,,0.00,,2013-02-15 12:22:00,
2013-02-15 07:32:00,37.0,27.0,29.91,WSW,257,1.0,6.0,68,0.00,,,0.00,,2013-02-15 12:32:00,
2013-02-15 07:42:00,37.0,27.0,29.91,WSW,257,1.0,6.0,68,0.00,,,0.00,,2013-02-15 12:42:00,
2013-02-15 07:52:00,36.0,27.0,29.91,West,270,0.0,2.0,70,0.00,,,0.00,,2013-02-15 12:52:00,
2013-02-15 08:02:00,36.0,27.0,29.92,West,267,2.0,5.0,70,0.00,,,0.00,,2013-02-15 13:02:00,
2013-02-15 08:11:00,36.0,27.0,29.92,West,267,2.0,5.0,70,0.00,,,0.00,,2013-02-15 13:11:00,
2013-02-15 08:22:00,37.0,27.0,29.92,SW,219,4.0,7.0,68,0.00,,,0.00,,2013-02-15 13:22:00,
2013-02-15 08:32:00,37.0,27.0,29.93,SW,214,2.0,6.0,68,0.00,,,0.00,,2013-02-15 13:32:00,
2013-02-15 08:42:00,37.0,27.0,29.93,SW,214,2.0,6.0,68,0.00,,,0.00,,2013-02-15 13:42:00,
2013-02-15 08:52:00,37.0,27.0,29.93,SW,232,2.0,7.0,68,0.00,,,0.00,,2013-02-15 13:52:00,
2013-02-15 09:01:00,38.0,28.0,29.93,SSW,213,1.0,7.0,67,0.00,,,0.00,,2013-02-15 14:01:00,
2013-02-15 09:12:00,38.0,28.0,29.93,SSW,213,1.0,7.0,67,0.00,,,0.00,,2013-02-15 14:12:00,
2013-02-15 09:22:00,38.0,28.0,29.93,South,177,4.0,7.0,66,0.00,,,0.00,,2013-02-15 14:22:00,
2013-02-15 09:32:00,39.0,28.0,29.93,SW,233,4.0,10.0,64,0.00,,,0.00,,2013-02-15 14:32:00,
2013-02-15 09:42:00,39.0,28.0,29.93,SW,233,4.0,10.0,64,0.00,,,0.00,,2013-02-15 14:42:00,
2013-02-15 09:52:00,41.0,29.0,29.94,SSW,204,4.0,8.0,62,0.00,,,0.00,,2013-02-15 14:52:00,
2013-02-15 10:02:00,42.0,29.0,29.93,SW,216,4.0,7.0,60,0.00,,,0.00,,2013-02-15 15:02:00,
2013-02-15 10:11:00,42.0,29.0,29.93,SW,216,4.0,7.0,60,0.00,,,0.00,,2013-02-15 15:11:00,
2013-02-15 10:22:00,42.0,29.0,29.93,SW,216,4.0,7.0,60,0.00,,,0.00,,2013-02-15 15:22:00,
2013-02-15 10:32:00,44.0,29.0,29.93,SW,225,3.0,9.0,56,0.00,,,0.00,,2013-02-15 15:32:00,
2013-02-15 10:42:00,44.0,29.0,29.93,SW,225,3.0,9.0,56,0.00,,,0.00,,2013-02-15 15:42:00,
2013-02-15 10:52:00,44.0,29.0,29.93,SSW,194,6.0,9.0,55,0.00,,,0.00,,2013-02-15 15:52:00,
2013-02-15 11:02:00,45.0,29.0,29.93,SSW,202,4.0,10.0,53,0.00,,,0.00,,2013-02-15 16:02:00,
2013-02-15 11:12:00,45.0,29.0,29.93,SSW,202,4.0,10.0,53,0.00,,,0.00,,2013-02-15 16:12:00,
2013-02-15 11:22:00,46.0,30.0,29.93,NW,315,5.0,11.0,53,0.00,,,0.00,,2013-02-15 16:22:00,
2013-02-15 11:32:00,46.0,29.0,29.93,West,265,6.0,10.0,52,0.00,,,0.00,,2013-02-15 16:32:00,
2013-02-15 11:42:00,46.0,29.0,29.93,West,265,6.0,10.0,52,0.00,,,0.00,,2013-02-15 16:42:00,
2013-02-15 11:52:00,47.0,30.0,29.93,SSE,162,3.0,9.0,52,0.00,,,0.00,,2013-02-15 16:52:00,
2013-02-15 12:01:00,46.0,29.0,29.92,SW,227,5.0,9.0,51,0.00,,,0.00,,2013-02-15 17:01:00,
2013-02-15 12:11:00,46.0,29.0,29.92,SW,227,5.0,9.0,51,0.00,,,0.00,,2013-02-15 17:11:00,
2013-02-15 12:21:00,46.0,29.0,29.92,SW,229,3.0,8.0,51,0.00,,,0.00,,2013-02-15 17:21:00,
2013-02-15 12:32:00,47.0,29.0,29.91,SW,218,3.0,7.0,49,0.00,,,0.00,,2013-02-15 17:32:00,
2013-02-15 12:42:00,47.0,29.0,29.91,SW,218,3.0,7.0,49,0.00,,,0.00,,2013-02-15 17:42:00,
2013-02-15 12:52:00,48.0,30.0,29.91,SSW,198,4.0,11.0,49,0.00,,,0.00,,2013-02-15 17:52:00,
2013-02-15 13:02:00,48.0,30.0,29.91,SSW,198,4.0,11.0,49,0.00,,,0.00,,2013-02-15 18:02:00,
2013-02-15 13:12:00,48.0,30.0,29.91,SSW,198,4.0,11.0,49,0.00,,,0.00,,2013-02-15 18:12:00,
2013-02-15 13:22:00,50.0,29.0,29.90,NW,313,3.0,8.0,44,0.00,,,0.00,,2013-02-15 18:22:00,
2013-02-15 13:32:00,50.0,30.0,29.89,NW,310,4.0,10.0,46,0.00,,,0.00,,2013-02-15 18:32:00,
2013-02-15 13:42:00,50.0,30.0,29.89,NW,310,4.0,10.0,46,0.00,,,0.00,,2013-02-15 18:42:00,
2013-02-15 13:52:00,49.0,28.0,29.89,WNW,296,2.0,7.0,44,0.00,,,0.00,,2013-02-15 18:52:00,
2013-02-15 14:02:00,48.0,30.0,29.90,WNW,302,2.0,11.0,49,0.00,,,0.00,,2013-02-15 19:02:00,
2013-02-15 14:11:00,48.0,30.0,29.90,WNW,302,2.0,11.0,49,0.00,,,0.00,,2013-02-15 19:11:00,
2013-02-15 14:22:00,47.0,29.0,29.90,WNW,301,2.0,8.0,49,0.00,,,0.00,,2013-02-15 19:22:00,
2013-02-15 14:32:00,47.0,28.0,29.90,NW,304,6.0,12.0,47,0.00,,,0.00,,2013-02-15 19:32:00,
2013-02-15 14:42:00,47.0,28.0,29.90,NW,304,6.0,12.0,47,0.00,,,0.00,,2013-02-15 19:42:00,
2013-02-15 14:52:00,46.0,27.0,29.90,NW,307,4.0,10.0,47,0.00,,,0.00,,2013-02-15 19:52:00,
2013-02-15 15:02:00,47.0,27.0,29.91,NW,307,5.0,15.0,46,0.00,,,0.00,,2013-02-15 20:02:00,
2013-02-15 15:11:00,47.0,27.0,29.91,NW,307,5.0,15.0,46,0.00,,,0.00,,2013-02-15 20:11:00,
2013-02-15 15:21:00,47.0,27.0,29.91,WNW,298,4.0,8.0,45,0.00,,,0.00,,2013-02-15 20:21:00,
2013-02-15 15:32:00,46.0,27.0,29.91,NNW,334,4.0,8.0,47,0.00,,,0.00,,2013-02-15 20:32:00,
2013-02-15 15:42:00,46.0,27.0,29.91,NNW,334,4.0,8.0,47,0.00,,,0.00,,2013-02-15 20:42:00,
2013-02-15 15:52:00,45.0,27.0,29.91,WNW,298,2.0,8.0,49,0.00,,,0.00,,2013-02-15 20:52:00,
2013-02-15 16:02:00,45.0,27.0,29.92,NE,36,5.0,9.0,48,0.00,,,0.00,,2013-02-15 21:02:00,
2013-02-15 16:11:00,45.0,27.0,29.92,NE,36,5.0,9.0,48,0.00,,,0.00,,2013-02-15 21:11:00,
2013-02-15 16:22:00,45.0,27.0,29.92,NW,310,3.0,6.0,48,0.00,,,0.00,,2013-02-15 21:22:00,
2013-02-15 16:32:00,45.0,27.0,29.92,NNW,343,2.0,7.0,49,0.00,,,0.00,,2013-02-15 21:32:00,
2013-02-15 16:42:00,45.0,27.0,29.92,NNW,343,2.0,7.0,49,0.00,,,0.00,,2013-02-15 21:42:00,
2013-02-15 16:52:00,44.0,26.0,29.93,WNW,301,1.0,8.0,48,0.00,,,0.00,,2013-02-15 21:52:00,
2013-02-15 17:02:00,44.0,25.0,29.93,North,3,2.0,6.0,47,0.00,,,0.00,,2013-02-15 22:02:00,
2013-02-15 17:11:00,44.0,25.0,29.93,North,3,2.0,6.0,47,0.00,,,0.00,,2013-02-15 22:11:00,
2013-02-15 17:22:00,44.0,25.0,29.93,NW,317,3.0,9.0,47,0.00,,,0.00,,2013-02-15 22:22:00,
2013-02-15 17:32:00,43.0,24.0,29.94,NW,311,1.0,6.0,46,0.00,,,0.00,,2013-02-15 22:32:00,
2013-02-15 17:42:00,43.0,24.0,29.94,NW,311,1.0,6.0,46,0.00,,,0.00,,2013-02-15 22:42:00,
2013-02-15 17:52:00,43.0,24.0,29.94,NW,306,1.0,4.0,47,0.00,,,0.00,,2013-02-15 22:52:00,
2013-02-15 18:02:00,43.0,25.0,29.94,NNW,327,0.0,5.0,48,0.00,,,0.00,,2013-02-15 23:02:00,
2013-02-15 18:11:00,43.0,25.0,29.94,NNW,327,0.0,5.0,48,0.00,,,0.00,,2013-02-15 23:11:00,
2013-02-15 18:21:00,42.0,23.0,29.94,WNW,302,1.0,4.0,47,0.00,,,0.00,,2013-02-15 23:21:00,
2013-02-15 18:32:00,42.0,23.0,29.94,NW,326,1.0,5.0,47,0.00,,,0.00,,2013-02-15 23:32:00,
2013-02-15 18:42:00,42.0,23.0,29.94,NW,326,1.0,5.0,47,0.00,,,0.00,,2013-02-15 23:42:00,
2013-02-15 18:52:00,42.0,23.0,29.94,NW,326,1.0,5.0,47,0.00,,,0.00,,2013-02-15 23:52:00,
2013-02-15 19:02:00,42.0,24.0,29.95,NW,310,1.0,3.0,48,0.00,,,0.00,,2013-02-16 00:02:00,
2013-02-15 19:11:00,42.0,24.0,29.95,NW,310,1.0,3.0,48,0.00,,,0.00,,2013-02-16 00:11:00,
2013-02-15 19:22:00,41.0,24.0,29.95,WNW,299,0.0,1.0,50,0.00,,,0.00,,2013-02-16 00:22:00,
2013-02-15 19:32:00,41.0,23.0,29.95,WNW,298,0.0,5.0,48,0.00,,,0.00,,2013-02-16 00:32:00,
2013-02-15 19:42:00,41.0,23.0,29.95,WNW,298,0.0,5.0,48,0.00,,,0.00,,2013-02-16 00:42:00,
2013-02-15 19:51:00,42.0,23.0,29.96,NNW,329,1.0,4.0,47,0.00,,,0.00,,2013-02-16 00:51:00,
2013-02-15 20:02:00,41.0,24.0,29.96,WNW,293,0.0,4.0,50,0.00,,,0.00,,2013-02-16 01:02:00,
2013-02-15 20:11:00,41.0,24.0,29.96,WNW,293,0.0,4.0,50,0.00,,,0.00,,2013-02-16 01:11:00,
2013-02-15 20:21:00,40.0,24.0,29.96,NW,306,0.0,4.0,52,0.00,,,0.00,,2013-02-16 01:21:00,
2013-02-15 20:32:00,40.0,24.0,29.96,NW,310,1.0,5.0,53,0.00,,,0.00,,2013-02-16 01:32:00,
2013-02-15 20:42:00,40.0,24.0,29.96,NW,310,1.0,5.0,53,0.00,,,0.00,,2013-02-16 01:42:00,
2013-02-15 20:52:00,40.0,24.0,29.95,NNW,329,1.0,5.0,53,0.00,,,0.00,,2013-02-16 01:52:00,
2013-02-15 21:01:00,40.0,24.0,29.96,NNW,328,2.0,5.0,53,0.00,,,0.00,,2013-02-16 02:01:00,
2013-02-15 21:11:00,40.0,24.0,29.96,NNW,328,2.0,5.0,53,0.00,,,0.00,,2013-02-16 02:11:00,
2013-02-15 21:22:00,39.0,24.0,29.97,NNW,343,3.0,8.0,55,0.00,,,0.00,,2013-02-16 02:22:00,
2013-02-15 21:32:00,39.0,25.0,29.97,WNW,290,1.0,6.0,57,0.00,,,0.00,,2013-02-16 02:32:00,
2013-02-15 21:42:00,39.0,25.0,29.97,WNW,290,1.0,6.0,57,0.00,,,0.00,,2013-02-16 02:42:00,
2013-02-15 21:52:00,38.0,25.0,29.98,NW,310,1.0,4.0,59,0.00,,,0.00,,2013-02-16 02:52:00,
2013-02-15 22:02:00,38.0,25.0,29.98,WNW,293,0.0,2.0,60,0.00,,,0.00,,2013-02-16 03:02:00,
2013-02-15 22:11:00,38.0,25.0,29.98,WNW,293,0.0,2.0,60,0.00,,,0.00,,2013-02-16 03:11:00,
2013-02-15 22:21:00,38.0,26.0,29.98,WNW,293,0.0,1.0,61,0.00,,,0.00,,2013-02-16 03:21:00,
2013-02-15 22:32:00,37.0,25.0,29.98,WNW,294,1.0,5.0,62,0.00,,,0.00,,2013-02-16 03:32:00,
2013-02-15 22:42:00,37.0,25.0,29.98,WNW,294,1.0,5.0,62,0.00,,,0.00,,2013-02-16 03:42:00,
2013-02-15 22:52:00,37.0,25.0,29.99,NW,307,3.0,8.0,62,0.00,,,0.00,,2013-02-16 03:52:00,
2013-02-15 23:01:00,37.0,26.0,30.00,North,5,5.0,13.0,65,0.00,,,0.00,,2013-02-16 04:01:00,
2013-02-15 23:11:00,37.0,26.0,30.00,North,5,5.0,13.0,65,0.00,,,0.00,,2013-02-16 04:11:00,
2013-02-15 23:21:00,35.0,27.0,30.00,WNW,283,3.0,9.0,71,0.00,,,0.00,,2013-02-16 04:21:00,
2013-02-15 23:32:00,34.0,28.0,30.01,NW,314,2.0,8.0,79,0.00,,,0.00,,2013-02-16 04:32:00,
2013-02-15 23:42:00,34.0,28.0,30.01,NW,314,2.0,8.0,79,0.00,,,0.00,,2013-02-16 04:42:00,
2013-02-15 23:51:00,33.0,29.0,30.02,NW,306,0.0,4.0,86,0.00,,,0.00,,2013-02-16 04:51:00,